Skip Page Navigation
NASA JPL Caltech
NASA Logo - Jet Propulsion Laboratory + View the NASA Portal
+ Center for Near-Earth Object Studies
JPL Home Earth Solar System Stars & Galaxies Technology
JPL Solar System Dynamics
BODIES ORBITS EPHEMERIDES TOOLS PHYSICAL DATA DISCOVERY FAQ SITE MAP
IMPORTANT: The SSD Announcement email list is now available. Major changes are coming in the near future, including possible hostname and/or URL changes. To be notified of such changes, subscribe to this email list.

Please visit this page for more details.


JPL Small-Body Database Browser
Search: [ help ]  
47884 (2000 FN40)
Classification: Main-belt Asteroid          SPK-ID: 2047884
Ephemeris | Orbit Diagram | Orbital Elements | Mission Design | Physical Parameters | Discovery Circumstances | Close-Approach Data ]

[ show orbit diagram ]
Orbital Elements at Epoch 2458600.5 (2019-Apr-27.0) TDB
Reference: JPL 19 (heliocentric ecliptic J2000)
 Element Value Uncertainty (1-sigma)   Units 
e .1489852223816264 4.7176e-08  
a 2.759133690220414 1.7099e-08 au
q 2.348063543802289 1.2803e-07 au
i 9.370023511754779 5.0767e-06 deg
node 150.2989804422124 3.0077e-05 deg
peri 266.6964025713283 3.4364e-05 deg
M 188.5051414749164 1.6877e-05 deg
tp 2459397.954928804729
(2021-Jul-02.45492880)
8.0548e-05 TDB
period 1674.008053878259
4.58
1.5561e-05
4.26e-08
d
yr
n .2150527287882336 1.9991e-09 deg/d
Q 3.17020383663854 1.9646e-08 au
  Orbit Determination Parameters
   # obs. used (total)      827  
   data-arc span      7622 days (20.87 yr)  
   first obs. used      1997-07-30  
   last obs. used      2018-06-12  
   planetary ephem.      DE431  
   SB-pert. ephem.      SB431-N16  
   condition code      0  
   norm. resid. RMS      .55574  
   source      ORB  
   producer      Otto Matic  
   solution date      2019-Jul-13 02:44:01  

Additional Information
 Earth MOID = 1.38197 au 
 Jupiter MOID = 2.23216 au 
 T_jup = 3.307 
[ show covariance matrix ]

Ephemeris | Orbit Diagram | Orbital Elements | Mission Design | Physical Parameters | Discovery Circumstances | Close-Approach Data ]

Physical Parameter Table
Parameter Symbol Value Units Sigma Reference Notes
absolute magnitude H 14.6   n/a MPO302333  

47884 (2000 FN40)          Discovered 2000-Mar-29 by LINEAR at Socorro
Reference: 20020921/Numbers.arcLast Updated: 2004-04-19

[ show close-approach data ]
Alternate Designations
 2000 FN40 = 1997 OC3 
Ephemeris | Orbit Diagram | Orbital Elements | Mission Design | Physical Parameters | Discovery Circumstances | Close-Approach Data ]
ABOUT SSD CREDITS/AWARDS PRIVACY/COPYRIGHT GLOSSARY LINKS
FirstGov 2020-Jan-22 11:33 UT
(server date/time)  
NASA Home Page
Site Manager:   Ryan S. Park
Webmaster  Alan B. Chamberlin